Time,TemperatureF,DewpointF,PressureIn,WindDirection,WindDirectionDegrees,WindSpeedMPH,WindSpeedGustMPH,Humidity,HourlyPrecipIn,Conditions,Clouds,dailyrainin,SoftwareType,DateUTC
2013-01-01 00:02:00,19.8,17.0,28.61,NNW,338,0.0,0.0,89,0.00,,---,0.00,VWS V14.01,2013-01-01 08:02:00,
2013-01-01 00:07:00,19.4,16.7,28.61,NNW,338,0.0,0.0,89,0.00,,---,0.00,VWS V14.01,2013-01-01 08:07:00,
2013-01-01 00:12:00,19.0,16.1,28.61,NNW,338,0.0,0.0,88,0.00,,---,0.00,VWS V14.01,2013-01-01 08:12:00,
2013-01-01 00:17:00,18.7,15.7,28.61,NNW,338,0.0,0.0,88,0.00,,---,0.00,VWS V14.01,2013-01-01 08:17:00,
2013-01-01 00:23:00,18.3,15.4,28.61,NNW,338,0.0,0.0,88,0.00,,---,0.00,VWS V14.01,2013-01-01 08:23:00,
2013-01-01 00:28:00,17.8,14.8,28.61,NNW,338,0.0,0.0,88,0.00,,---,0.00,VWS V14.01,2013-01-01 08:28:00,
2013-01-01 00:33:00,17.6,14.7,28.61,NNW,338,0.0,0.0,88,0.00,,---,0.00,VWS V14.01,2013-01-01 08:33:00,
2013-01-01 00:38:00,17.4,14.5,28.61,NNW,338,0.0,0.0,88,0.00,,---,0.00,VWS V14.01,2013-01-01 08:38:00,
2013-01-01 00:43:00,17.1,14.1,28.61,NNW,338,0.0,0.0,88,0.00,,---,0.00,VWS V14.01,2013-01-01 08:43:00,
2013-01-01 00:48:00,16.9,13.9,28.61,NNW,338,0.0,0.0,88,0.00,,---,0.00,VWS V14.01,2013-01-01 08:48:00,
2013-01-01 00:53:00,16.5,13.6,28.61,NNW,338,0.0,0.0,88,0.00,,---,0.00,VWS V14.01,2013-01-01 08:53:00,
2013-01-01 00:58:00,16.2,13.2,28.61,NNW,338,0.0,0.0,88,0.00,,---,0.00,VWS V14.01,2013-01-01 08:58:00,
2013-01-01 01:03:00,16.5,13.9,28.61,NNW,338,0.0,0.0,89,0.00,,---,0.00,VWS V14.01,2013-01-01 09:03:00,
2013-01-01 01:08:00,16.2,13.2,28.61,NNW,338,0.0,0.0,88,0.00,,---,0.00,VWS V14.01,2013-01-01 09:08:00,
2013-01-01 01:13:00,16.0,13.1,28.61,NNW,338,0.0,0.0,88,0.00,,---,0.00,VWS V14.01,2013-01-01 09:13:00,
2013-01-01 01:18:00,15.6,13.0,28.61,NNW,338,0.0,0.0,89,0.00,,---,0.00,VWS V14.01,2013-01-01 09:18:00,
2013-01-01 01:23:00,15.6,13.0,28.61,NNW,338,0.0,0.0,89,0.00,,---,0.00,VWS V14.01,2013-01-01 09:23:00,
2013-01-01 01:28:00,15.1,12.2,28.61,NNW,338,0.0,0.0,88,0.00,,---,0.00,VWS V14.01,2013-01-01 09:28:00,
2013-01-01 01:33:00,15.1,12.2,28.61,NNW,338,0.0,0.0,88,0.00,,---,0.00,VWS V14.01,2013-01-01 09:33:00,
2013-01-01 01:38:00,14.9,12.2,28.61,NNW,338,0.0,0.0,89,0.00,,---,0.00,VWS V14.01,2013-01-01 09:38:00,
2013-01-01 01:43:00,14.4,11.5,28.61,NNW,338,0.0,0.0,88,0.00,,---,0.00,VWS V14.01,2013-01-01 09:43:00,
2013-01-01 01:48:00,14.0,11.1,28.61,NNW,338,0.0,0.0,88,0.00,,---,0.00,VWS V14.01,2013-01-01 09:48:00,
2013-01-01 01:53:00,14.2,11.0,28.61,NNW,338,0.0,0.0,87,0.00,,---,0.00,VWS V14.01,2013-01-01 09:53:00,
2013-01-01 01:58:00,14.0,11.1,28.61,NNW,338,0.0,0.0,88,0.00,,---,0.00,VWS V14.01,2013-01-01 09:58:00,
2013-01-01 02:03:00,13.5,10.6,28.61,NNW,338,0.0,0.0,88,0.00,,---,0.00,VWS V14.01,2013-01-01 10:03:00,
2013-01-01 02:08:00,13.5,10.6,28.61,NNW,338,0.0,0.0,88,0.00,,---,0.00,VWS V14.01,2013-01-01 10:08:00,
2013-01-01 02:13:00,12.9,10.0,28.61,NNW,338,0.0,0.0,88,0.00,,---,0.00,VWS V14.01,2013-01-01 10:13:00,
2013-01-01 02:18:00,12.9,10.0,28.61,NNW,338,0.0,0.0,88,0.00,,---,0.00,VWS V14.01,2013-01-01 10:18:00,
2013-01-01 02:23:00,12.6,9.7,28.61,NNW,338,0.0,0.0,88,0.00,,---,0.00,VWS V14.01,2013-01-01 10:23:00,
2013-01-01 02:28:00,12.2,9.3,28.61,NNW,338,0.0,0.0,88,0.00,,---,0.00,VWS V14.01,2013-01-01 10:28:00,
2013-01-01 02:33:00,12.6,9.7,28.64,NNW,338,0.0,0.0,88,0.00,,---,0.00,VWS V14.01,2013-01-01 10:33:00,
2013-01-01 02:38:00,12.7,9.9,28.64,NNW,338,0.0,0.0,88,0.00,,---,0.00,VWS V14.01,2013-01-01 10:38:00,
2013-01-01 02:43:00,12.2,9.3,28.64,NNW,338,0.0,0.0,88,0.00,,---,0.00,VWS V14.01,2013-01-01 10:43:00,
2013-01-01 02:48:00,12.4,9.5,28.64,NNW,338,0.0,0.0,88,0.00,,---,0.00,VWS V14.01,2013-01-01 10:48:00,
2013-01-01 02:53:00,12.6,9.7,28.64,NNW,338,0.0,0.0,88,0.00,,---,0.00,VWS V14.01,2013-01-01 10:53:00,
2013-01-01 02:58:00,12.2,9.3,28.64,NNW,338,0.0,0.0,88,0.00,,---,0.00,VWS V14.01,2013-01-01 10:58:00,
2013-01-01 03:03:00,11.8,9.0,28.64,NNW,338,0.0,0.0,88,0.00,,---,0.00,VWS V14.01,2013-01-01 11:03:00,
2013-01-01 03:08:00,11.5,8.6,28.64,NNW,338,0.0,0.0,88,0.00,,---,0.00,VWS V14.01,2013-01-01 11:08:00,
2013-01-01 03:13:00,11.3,8.4,28.64,NNW,338,0.0,0.0,88,0.00,,---,0.00,VWS V14.01,2013-01-01 11:13:00,
2013-01-01 03:18:00,10.9,8.1,28.64,NNW,338,0.0,0.0,88,0.00,,---,0.00,VWS V14.01,2013-01-01 11:18:00,
2013-01-01 03:23:00,10.9,8.1,28.64,NNW,338,0.0,0.0,88,0.00,,---,0.00,VWS V14.01,2013-01-01 11:23:00,
2013-01-01 03:28:00,11.1,8.3,28.64,NNW,338,0.0,0.0,88,0.00,,---,0.00,VWS V14.01,2013-01-01 11:28:00,
2013-01-01 03:33:00,10.8,7.9,28.64,NNW,338,0.0,0.0,88,0.00,,---,0.00,VWS V14.01,2013-01-01 11:33:00,
2013-01-01 03:38:00,10.8,7.9,28.64,NNW,338,0.0,0.0,88,0.00,,---,0.00,VWS V14.01,2013-01-01 11:38:00,
2013-01-01 03:43:00,10.8,7.9,28.67,NNW,338,0.0,0.0,88,0.00,,---,0.00,VWS V14.01,2013-01-01 11:43:00,
2013-01-01 03:48:00,10.8,7.9,28.67,NNW,338,0.0,0.0,88,0.00,,---,0.00,VWS V14.01,2013-01-01 11:48:00,
2013-01-01 03:53:00,10.9,8.1,28.67,NNW,338,0.0,0.0,88,0.00,,---,0.00,VWS V14.01,2013-01-01 11:53:00,
2013-01-01 03:58:00,10.9,8.1,28.64,NNW,338,0.0,0.0,88,0.00,,---,0.00,VWS V14.01,2013-01-01 11:58:00,
2013-01-01 04:03:00,10.4,7.6,28.64,NNW,338,0.0,0.0,88,0.00,,---,0.00,VWS V14.01,2013-01-01 12:03:00,
2013-01-01 04:08:00,10.2,7.4,28.64,NNW,338,0.0,0.0,88,0.00,,---,0.00,VWS V14.01,2013-01-01 12:08:00,
2013-01-01 04:13:00,10.0,7.2,28.64,NNW,338,0.0,0.0,88,0.00,,---,0.00,VWS V14.01,2013-01-01 12:13:00,
2013-01-01 04:18:00,10.0,7.2,28.64,NNW,338,0.0,0.0,88,0.00,,---,0.00,VWS V14.01,2013-01-01 12:18:00,
2013-01-01 04:23:00,10.2,7.4,28.64,NNW,338,0.0,0.0,88,0.00,,---,0.00,VWS V14.01,2013-01-01 12:23:00,
2013-01-01 04:28:00,10.4,7.6,28.67,NNW,338,0.0,0.0,88,0.00,,---,0.00,VWS V14.01,2013-01-01 12:28:00,
2013-01-01 04:33:00,10.6,7.7,28.67,NNW,338,0.0,0.0,88,0.00,,---,0.00,VWS V14.01,2013-01-01 12:33:00,
2013-01-01 04:38:00,10.8,7.9,28.67,NNW,338,0.0,0.0,88,0.00,,---,0.00,VWS V14.01,2013-01-01 12:38:00,
2013-01-01 04:43:00,10.6,7.7,28.67,NNW,338,0.0,0.0,88,0.00,,---,0.00,VWS V14.01,2013-01-01 12:43:00,
2013-01-01 04:48:00,10.6,7.7,28.67,NNW,338,0.0,0.0,88,0.00,,---,0.00,VWS V14.01,2013-01-01 12:48:00,
2013-01-01 04:54:00,10.4,7.6,28.67,NNW,338,0.0,0.0,88,0.00,,---,0.00,VWS V14.01,2013-01-01 12:54:00,
2013-01-01 04:59:00,10.8,7.9,28.67,NNW,338,0.0,0.0,88,0.00,,---,0.00,VWS V14.01,2013-01-01 12:59:00,
2013-01-01 05:04:00,10.4,7.6,28.67,NNW,338,0.0,0.0,88,0.00,,---,0.00,VWS V14.01,2013-01-01 13:04:00,
2013-01-01 05:09:00,10.2,7.4,28.67,NNW,338,0.0,0.0,88,0.00,,---,0.00,VWS V14.01,2013-01-01 13:09:00,
2013-01-01 05:14:00,9.7,6.8,28.67,NNW,338,0.0,0.0,88,0.00,,---,0.00,VWS V14.01,2013-01-01 13:14:00,
2013-01-01 05:19:00,9.9,7.0,28.67,NNW,338,0.0,0.0,88,0.00,,---,0.00,VWS V14.01,2013-01-01 13:19:00,
2013-01-01 05:24:00,10.0,7.2,28.67,NNW,338,0.0,0.0,88,0.00,,---,0.00,VWS V14.01,2013-01-01 13:24:00,
2013-01-01 05:29:00,10.0,7.2,28.67,NNW,338,0.0,0.0,88,0.00,,---,0.00,VWS V14.01,2013-01-01 13:29:00,
2013-01-01 05:34:00,10.0,7.2,28.67,NNW,338,0.0,0.0,88,0.00,,---,0.00,VWS V14.01,2013-01-01 13:34:00,
2013-01-01 05:39:00,10.4,7.6,28.67,NNW,338,0.0,0.0,88,0.00,,---,0.00,VWS V14.01,2013-01-01 13:39:00,
2013-01-01 05:44:00,10.4,7.6,28.67,NNW,338,0.0,0.0,88,0.00,,---,0.00,VWS V14.01,2013-01-01 13:44:00,
2013-01-01 05:49:00,10.4,7.6,28.67,NNW,338,0.0,0.0,88,0.00,,---,0.00,VWS V14.01,2013-01-01 13:49:00,
2013-01-01 05:54:00,10.4,7.6,28.67,NNW,338,0.0,0.0,88,0.00,,---,0.00,VWS V14.01,2013-01-01 13:54:00,
2013-01-01 05:59:00,10.4,7.6,28.67,NNW,338,0.0,0.0,88,0.00,,---,0.00,VWS V14.01,2013-01-01 13:59:00,
2013-01-01 06:04:00,10.8,7.9,28.67,NNW,338,0.0,0.0,88,0.00,,---,0.00,VWS V14.01,2013-01-01 14:04:00,
2013-01-01 06:09:00,10.9,8.1,28.67,NNW,338,0.0,0.0,88,0.00,,---,0.00,VWS V14.01,2013-01-01 14:09:00,
2013-01-01 06:14:00,10.9,8.1,28.67,NNW,338,0.0,0.0,88,0.00,,---,0.00,VWS V14.01,2013-01-01 14:14:00,
2013-01-01 06:19:00,10.8,7.9,28.67,NNW,338,0.0,0.0,88,0.00,,---,0.00,VWS V14.01,2013-01-01 14:19:00,
2013-01-01 06:25:00,10.6,7.7,28.67,NNW,338,0.0,0.0,88,0.00,,---,0.00,VWS V14.01,2013-01-01 14:25:00,
2013-01-01 06:30:00,10.0,7.2,28.67,NNW,338,0.0,0.0,88,0.00,,---,0.00,VWS V14.01,2013-01-01 14:30:00,
2013-01-01 06:35:00,9.7,6.8,28.67,NNW,338,0.0,0.0,88,0.00,,---,0.00,VWS V14.01,2013-01-01 14:35:00,
2013-01-01 06:40:00,9.7,6.8,28.67,NNW,338,0.0,0.0,88,0.00,,---,0.00,VWS V14.01,2013-01-01 14:40:00,
2013-01-01 06:45:00,9.7,6.8,28.67,NNW,338,0.0,0.0,88,0.00,,---,0.00,VWS V14.01,2013-01-01 14:45:00,
2013-01-01 06:50:00,9.9,7.0,28.67,NNW,338,0.0,0.0,88,0.00,,---,0.00,VWS V14.01,2013-01-01 14:50:00,
2013-01-01 06:55:00,9.5,6.7,28.67,NNW,338,0.0,0.0,88,0.00,,---,0.00,VWS V14.01,2013-01-01 14:55:00,
2013-01-01 07:00:00,9.3,6.5,28.67,NNW,338,0.0,0.0,88,0.00,,---,0.00,VWS V14.01,2013-01-01 15:00:00,
2013-01-01 07:05:00,9.0,6.1,28.67,NNW,338,0.0,0.0,88,0.00,,---,0.00,VWS V14.01,2013-01-01 15:05:00,
2013-01-01 07:10:00,8.6,5.8,28.67,NNW,338,0.0,0.0,88,0.00,,---,0.00,VWS V14.01,2013-01-01 15:10:00,
2013-01-01 07:15:00,8.4,5.6,28.67,NNW,338,0.0,0.0,88,0.00,,---,0.00,VWS V14.01,2013-01-01 15:15:00,
2013-01-01 07:20:00,8.6,5.8,28.67,NNW,338,0.0,0.0,88,0.00,,---,0.00,VWS V14.01,2013-01-01 15:20:00,
2013-01-01 07:25:00,8.2,5.4,28.67,NNW,338,0.0,0.0,88,0.00,,---,0.00,VWS V14.01,2013-01-01 15:25:00,
2013-01-01 07:30:00,8.1,5.2,28.67,NNW,338,0.0,0.0,88,0.00,,---,0.00,VWS V14.01,2013-01-01 15:30:00,
2013-01-01 07:35:00,8.1,5.2,28.67,NNW,338,0.0,0.0,88,0.00,,---,0.00,VWS V14.01,2013-01-01 15:35:00,
2013-01-01 07:40:00,7.7,4.9,28.67,NNW,338,0.0,0.0,88,0.00,,---,0.00,VWS V14.01,2013-01-01 15:40:00,
2013-01-01 07:45:00,7.5,4.7,28.67,NNW,338,0.0,0.0,88,0.00,,---,0.00,VWS V14.01,2013-01-01 15:45:00,
2013-01-01 07:50:00,7.5,4.7,28.67,NNW,338,0.0,0.0,88,0.00,,---,0.00,VWS V14.01,2013-01-01 15:50:00,
2013-01-01 07:55:00,8.1,5.2,28.67,NNW,338,0.0,0.0,88,0.00,,---,0.00,VWS V14.01,2013-01-01 15:55:00,
2013-01-01 08:00:00,8.1,5.2,28.67,NNW,338,0.0,0.0,88,0.00,,---,0.00,VWS V14.01,2013-01-01 16:00:00,
2013-01-01 08:05:00,7.7,4.9,28.67,NNW,338,0.0,0.0,88,0.00,,---,0.00,VWS V14.01,2013-01-01 16:05:00,
2013-01-01 08:10:00,7.7,4.9,28.67,NNW,338,0.0,0.0,88,0.00,,---,0.00,VWS V14.01,2013-01-01 16:10:00,
2013-01-01 08:15:00,7.5,4.7,28.67,NNW,338,0.0,0.0,88,0.00,,---,0.00,VWS V14.01,2013-01-01 16:15:00,
2013-01-01 08:20:00,7.5,4.7,28.67,NNW,338,0.0,0.0,88,0.00,,---,0.00,VWS V14.01,2013-01-01 16:20:00,
2013-01-01 08:25:00,7.7,4.9,28.67,NNW,338,0.0,0.0,88,0.00,,---,0.00,VWS V14.01,2013-01-01 16:25:00,
2013-01-01 08:30:00,7.7,4.9,28.67,NNW,338,0.0,0.0,88,0.00,,---,0.00,VWS V14.01,2013-01-01 16:30:00,
2013-01-01 08:35:00,7.7,4.9,28.67,NNW,338,0.0,0.0,88,0.00,,---,0.00,VWS V14.01,2013-01-01 16:35:00,
2013-01-01 08:40:00,7.5,4.7,28.67,NNW,338,0.0,0.0,88,0.00,,---,0.00,VWS V14.01,2013-01-01 16:40:00,
2013-01-01 08:45:00,7.7,4.9,28.70,NNW,338,0.0,0.0,88,0.00,,---,0.00,VWS V14.01,2013-01-01 16:45:00,
2013-01-01 08:50:00,8.2,5.4,28.70,NNW,338,0.0,0.0,88,0.00,,---,0.00,VWS V14.01,2013-01-01 16:50:00,
2013-01-01 08:55:00,8.2,5.4,28.70,NNW,338,0.0,0.0,88,0.00,,---,0.00,VWS V14.01,2013-01-01 16:55:00,
2013-01-01 09:00:00,8.4,5.6,28.70,NNW,338,0.0,0.0,88,0.00,,---,0.00,VWS V14.01,2013-01-01 17:00:00,
2013-01-01 09:05:00,8.6,5.8,28.70,NNW,338,0.0,0.0,88,0.00,,---,0.00,VWS V14.01,2013-01-01 17:05:00,
2013-01-01 09:10:00,8.6,5.8,28.70,NNW,338,0.0,0.0,88,0.00,,---,0.00,VWS V14.01,2013-01-01 17:10:00,
2013-01-01 09:15:00,9.1,6.3,28.70,NNW,338,0.0,0.0,88,0.00,,---,0.00,VWS V14.01,2013-01-01 17:15:00,
2013-01-01 09:20:00,9.3,6.5,28.70,NNW,338,0.0,0.0,88,0.00,,---,0.00,VWS V14.01,2013-01-01 17:20:00,
2013-01-01 09:25:00,9.5,6.7,28.70,NNW,338,0.0,0.0,88,0.00,,---,0.00,VWS V14.01,2013-01-01 17:25:00,
2013-01-01 09:31:00,10.0,7.2,28.70,NNW,338,0.0,0.0,88,0.00,,---,0.00,VWS V14.01,2013-01-01 17:31:00,
2013-01-01 09:36:00,10.8,7.9,28.70,NNW,338,0.0,0.0,88,0.00,,---,0.00,VWS V14.01,2013-01-01 17:36:00,
2013-01-01 09:41:00,10.8,7.9,28.70,NNW,338,0.0,0.0,88,0.00,,---,0.00,VWS V14.01,2013-01-01 17:41:00,
2013-01-01 09:46:00,11.1,8.3,28.70,NNW,338,0.0,0.0,88,0.00,,---,0.00,VWS V14.01,2013-01-01 17:46:00,
2013-01-01 09:51:00,11.5,8.6,28.70,NNW,338,0.0,0.0,88,0.00,,---,0.00,VWS V14.01,2013-01-01 17:51:00,
2013-01-01 09:56:00,11.8,9.0,28.70,NNW,338,0.0,0.0,88,0.00,,---,0.00,VWS V14.01,2013-01-01 17:56:00,
2013-01-01 10:01:00,12.0,9.2,28.70,NNW,338,0.0,0.0,88,0.00,,---,0.00,VWS V14.01,2013-01-01 18:01:00,
2013-01-01 10:06:00,12.6,9.7,28.70,NNW,338,0.0,0.0,88,0.00,,---,0.00,VWS V14.01,2013-01-01 18:06:00,
2013-01-01 10:11:00,13.1,10.2,28.70,NNW,338,0.0,0.0,88,0.00,,---,0.00,VWS V14.01,2013-01-01 18:11:00,
2013-01-01 10:16:00,13.5,10.6,28.70,NNW,338,0.0,0.0,88,0.00,,---,0.00,VWS V14.01,2013-01-01 18:16:00,
2013-01-01 10:21:00,13.6,10.8,28.70,NNW,338,0.0,0.0,88,0.00,,---,0.00,VWS V14.01,2013-01-01 18:21:00,
2013-01-01 10:26:00,14.4,11.7,28.70,NNW,338,0.0,0.0,89,0.00,,---,0.00,VWS V14.01,2013-01-01 18:26:00,
2013-01-01 10:31:00,14.9,12.2,28.70,NNW,338,0.0,0.0,89,0.00,,---,0.00,VWS V14.01,2013-01-01 18:31:00,
2013-01-01 10:36:00,15.1,12.4,28.70,NNW,338,0.0,0.0,89,0.00,,---,0.00,VWS V14.01,2013-01-01 18:36:00,
2013-01-01 10:41:00,15.4,12.8,28.70,NNW,338,0.0,0.0,89,0.00,,---,0.00,VWS V14.01,2013-01-01 18:41:00,
2013-01-01 10:46:00,15.8,13.1,28.70,NNW,338,0.0,0.0,89,0.00,,---,0.00,VWS V14.01,2013-01-01 18:46:00,
2013-01-01 10:51:00,16.0,13.3,28.70,NNW,338,0.0,0.0,89,0.00,,---,0.00,VWS V14.01,2013-01-01 18:51:00,
2013-01-01 10:56:00,16.2,13.5,28.70,NNW,338,0.0,0.0,89,0.00,,---,0.00,VWS V14.01,2013-01-01 18:56:00,
2013-01-01 11:01:00,16.5,13.9,28.70,NNW,338,0.0,0.0,89,0.00,,---,0.00,VWS V14.01,2013-01-01 19:01:00,
2013-01-01 11:06:00,16.7,14.0,28.70,NNW,338,0.0,0.0,89,0.00,,---,0.00,VWS V14.01,2013-01-01 19:06:00,
2013-01-01 11:11:00,17.2,14.6,28.70,NNW,338,0.0,0.0,89,0.00,,---,0.00,VWS V14.01,2013-01-01 19:11:00,
2013-01-01 11:16:00,17.6,14.9,28.70,NNW,338,0.0,0.0,89,0.00,,---,0.00,VWS V14.01,2013-01-01 19:16:00,
2013-01-01 11:21:00,17.6,14.9,28.70,NNW,338,0.0,0.0,89,0.00,,---,0.00,VWS V14.01,2013-01-01 19:21:00,
2013-01-01 11:26:00,18.0,15.3,28.70,NNW,338,0.0,0.0,89,0.00,,---,0.00,VWS V14.01,2013-01-01 19:26:00,
2013-01-01 11:31:00,18.5,15.8,28.70,NNW,338,0.0,0.0,89,0.00,,---,0.00,VWS V14.01,2013-01-01 19:31:00,
2013-01-01 11:36:00,18.9,16.2,28.70,NNW,338,0.0,0.0,89,0.00,,---,0.00,VWS V14.01,2013-01-01 19:36:00,
2013-01-01 11:41:00,19.4,16.7,28.70,NNW,338,0.0,0.0,89,0.00,,---,0.00,VWS V14.01,2013-01-01 19:41:00,
2013-01-01 11:46:00,19.6,16.9,28.70,NNW,338,0.0,0.0,89,0.00,,---,0.00,VWS V14.01,2013-01-01 19:46:00,
2013-01-01 11:51:00,19.6,16.9,28.70,NNW,338,0.0,0.0,89,0.00,,---,0.00,VWS V14.01,2013-01-01 19:51:00,
2013-01-01 11:56:00,19.6,16.6,28.70,NNW,338,0.0,0.0,88,0.00,,---,0.00,VWS V14.01,2013-01-01 19:56:00,
2013-01-01 12:01:00,19.4,16.4,28.67,NNW,338,0.0,0.0,88,0.00,,---,0.00,VWS V14.01,2013-01-01 20:01:00,
2013-01-01 12:06:00,19.2,16.0,28.67,NNW,338,0.0,0.0,87,0.00,,---,0.00,VWS V14.01,2013-01-01 20:06:00,
2013-01-01 12:11:00,19.0,15.8,28.67,NNW,338,0.0,0.0,87,0.00,,---,0.00,VWS V14.01,2013-01-01 20:11:00,
2013-01-01 12:16:00,18.9,15.4,28.67,NNW,338,0.0,0.0,86,0.00,,---,0.00,VWS V14.01,2013-01-01 20:16:00,
2013-01-01 12:21:00,18.9,15.4,28.67,NNW,338,0.0,0.0,86,0.00,,---,0.00,VWS V14.01,2013-01-01 20:21:00,
2013-01-01 12:26:00,18.7,15.2,28.67,NNW,338,0.0,0.0,86,0.00,,---,0.00,VWS V14.01,2013-01-01 20:26:00,
2013-01-01 12:31:00,18.7,15.2,28.67,NNW,338,0.0,0.0,86,0.00,,---,0.00,VWS V14.01,2013-01-01 20:31:00,
2013-01-01 12:36:00,18.7,15.2,28.67,NNW,338,0.0,0.0,86,0.00,,---,0.00,VWS V14.01,2013-01-01 20:36:00,
2013-01-01 12:41:00,18.7,15.5,28.67,NNW,338,0.0,0.0,87,0.00,,---,0.00,VWS V14.01,2013-01-01 20:41:00,
2013-01-01 12:46:00,19.2,16.0,28.67,NNW,338,0.0,0.0,87,0.00,,---,0.00,VWS V14.01,2013-01-01 20:46:00,
2013-01-01 12:51:00,19.8,16.8,28.67,NNW,338,0.0,0.0,88,0.00,,---,0.00,VWS V14.01,2013-01-01 20:51:00,
2013-01-01 12:56:00,20.3,17.6,28.67,NNW,338,0.0,0.0,89,0.00,,---,0.00,VWS V14.01,2013-01-01 20:56:00,
2013-01-01 13:01:00,20.8,18.1,28.67,NNW,338,0.0,0.0,89,0.00,,---,0.00,VWS V14.01,2013-01-01 21:01:00,
2013-01-01 13:06:00,21.6,18.8,28.67,NNW,338,0.0,0.0,89,0.00,,---,0.00,VWS V14.01,2013-01-01 21:06:00,
2013-01-01 13:11:00,22.5,20.0,28.67,NNW,338,0.0,0.0,90,0.00,,---,0.00,VWS V14.01,2013-01-01 21:11:00,
2013-01-01 13:16:00,23.4,20.9,28.67,NNW,338,0.0,0.0,90,0.00,,---,0.00,VWS V14.01,2013-01-01 21:16:00,
2013-01-01 13:21:00,24.1,21.8,28.67,NNW,338,0.0,0.0,91,0.00,,---,0.00,VWS V14.01,2013-01-01 21:21:00,
2013-01-01 13:26:00,24.4,22.2,28.67,NNW,338,0.0,0.0,91,0.00,,---,0.00,VWS V14.01,2013-01-01 21:26:00,
2013-01-01 13:31:00,24.1,21.6,28.70,NNW,338,0.0,0.0,90,0.00,,---,0.00,VWS V14.01,2013-01-01 21:31:00,
2013-01-01 13:36:00,24.3,21.5,28.70,NNW,338,0.0,0.0,89,0.00,,---,0.00,VWS V14.01,2013-01-01 21:36:00,
2013-01-01 13:41:00,24.3,21.5,28.70,NNW,338,0.0,0.0,89,0.00,,---,0.00,VWS V14.01,2013-01-01 21:41:00,
2013-01-01 13:46:00,23.5,20.2,28.67,NNW,338,0.0,0.0,87,0.00,,---,0.00,VWS V14.01,2013-01-01 21:46:00,
2013-01-01 13:51:00,23.5,20.2,28.67,NNW,338,0.0,0.0,87,0.00,,---,0.00,VWS V14.01,2013-01-01 21:51:00,
2013-01-01 13:56:00,23.4,19.8,28.67,NNW,338,0.0,0.0,86,0.00,,---,0.00,VWS V14.01,2013-01-01 21:56:00,
2013-01-01 14:01:00,23.2,19.6,28.70,NNW,338,0.0,0.0,86,0.00,,---,0.00,VWS V14.01,2013-01-01 22:01:00,
2013-01-01 14:06:00,23.2,19.6,28.70,NNW,338,0.0,0.0,86,0.00,,---,0.00,VWS V14.01,2013-01-01 22:06:00,
2013-01-01 14:11:00,23.0,19.5,28.70,NNW,338,0.0,0.0,86,0.00,,---,0.00,VWS V14.01,2013-01-01 22:11:00,
2013-01-01 14:16:00,22.8,19.3,28.70,NNW,338,0.0,0.0,86,0.00,,---,0.00,VWS V14.01,2013-01-01 22:16:00,
2013-01-01 14:21:00,22.6,19.1,28.70,NNW,338,0.0,0.0,86,0.00,,---,0.00,VWS V14.01,2013-01-01 22:21:00,
2013-01-01 14:27:00,22.3,18.7,28.70,NNW,338,0.0,0.0,86,0.00,,---,0.00,VWS V14.01,2013-01-01 22:27:00,
2013-01-01 14:32:00,22.1,18.3,28.70,NNW,338,0.0,0.0,85,0.00,,---,0.00,VWS V14.01,2013-01-01 22:32:00,
2013-01-01 14:37:00,21.9,18.4,28.70,NNW,338,0.0,0.0,86,0.00,,---,0.00,VWS V14.01,2013-01-01 22:37:00,
2013-01-01 14:42:00,21.9,18.4,28.70,NNW,338,0.0,0.0,86,0.00,,---,0.00,VWS V14.01,2013-01-01 22:42:00,
2013-01-01 14:47:00,21.9,18.4,28.70,NNW,338,0.0,0.0,86,0.00,,---,0.00,VWS V14.01,2013-01-01 22:47:00,
2013-01-01 14:52:00,21.9,18.6,28.70,NNW,338,0.0,0.0,87,0.00,,---,0.00,VWS V14.01,2013-01-01 22:52:00,
2013-01-01 14:57:00,22.1,19.1,28.70,NNW,338,0.0,0.0,88,0.00,,---,0.00,VWS V14.01,2013-01-01 22:57:00,
2013-01-01 15:02:00,22.1,19.1,28.70,NNW,338,0.0,0.0,88,0.00,,---,0.00,VWS V14.01,2013-01-01 23:02:00,
2013-01-01 15:07:00,22.1,19.1,28.70,NNW,338,0.0,0.0,88,0.00,,---,0.00,VWS V14.01,2013-01-01 23:07:00,
2013-01-01 15:12:00,22.3,19.3,28.70,NNW,338,0.0,0.0,88,0.00,,---,0.00,VWS V14.01,2013-01-01 23:12:00,
2013-01-01 15:17:00,22.3,19.3,28.70,NNW,338,0.0,0.0,88,0.00,,---,0.00,VWS V14.01,2013-01-01 23:17:00,
2013-01-01 15:22:00,22.1,19.1,28.70,NNW,338,0.0,0.0,88,0.00,,---,0.00,VWS V14.01,2013-01-01 23:22:00,
2013-01-01 15:27:00,21.9,18.9,28.70,NNW,338,0.0,0.0,88,0.00,,---,0.00,VWS V14.01,2013-01-01 23:27:00,
2013-01-01 15:32:00,21.9,18.6,28.70,NNW,338,0.0,0.0,87,0.00,,---,0.00,VWS V14.01,2013-01-01 23:32:00,
2013-01-01 15:37:00,21.7,18.5,28.70,NNW,338,0.0,0.0,87,0.00,,---,0.00,VWS V14.01,2013-01-01 23:37:00,
2013-01-01 15:42:00,21.6,18.3,28.70,NNW,338,0.0,0.0,87,0.00,,---,0.00,VWS V14.01,2013-01-01 23:42:00,
2013-01-01 15:47:00,21.4,18.1,28.70,NNW,338,0.0,0.0,87,0.00,,---,0.00,VWS V14.01,2013-01-01 23:47:00,
2013-01-01 15:52:00,21.2,17.9,28.70,NNW,338,0.0,0.0,87,0.00,,---,0.00,VWS V14.01,2013-01-01 23:52:00,
2013-01-01 15:57:00,21.0,17.8,28.70,NNW,338,0.0,0.0,87,0.00,,---,0.00,VWS V14.01,2013-01-01 23:57:00,
2013-01-01 16:02:00,20.8,17.6,28.70,NNW,338,0.0,0.0,87,0.00,,---,0.00,VWS V14.01,2013-01-02 00:02:00,
2013-01-01 16:07:00,20.7,17.4,28.70,NNW,338,0.0,0.0,87,0.00,,---,0.00,VWS V14.01,2013-01-02 00:07:00,
2013-01-01 16:12:00,20.3,17.1,28.70,NNW,338,0.0,0.0,87,0.00,,---,0.00,VWS V14.01,2013-01-02 00:12:00,
2013-01-01 16:17:00,20.1,16.6,28.70,NNW,338,0.0,0.0,86,0.00,,---,0.00,VWS V14.01,2013-01-02 00:17:00,
2013-01-01 16:22:00,19.8,16.3,28.70,NNW,338,0.0,0.0,86,0.00,,---,0.00,VWS V14.01,2013-01-02 00:22:00,
2013-01-01 16:27:00,19.6,16.1,28.70,NNW,338,0.0,0.0,86,0.00,,---,0.00,VWS V14.01,2013-01-02 00:27:00,
2013-01-01 16:32:00,19.6,16.4,28.70,NNW,338,0.0,0.0,87,0.00,,---,0.00,VWS V14.01,2013-01-02 00:32:00,
2013-01-01 16:37:00,19.6,16.4,28.70,NNW,338,0.0,0.0,87,0.00,,---,0.00,VWS V14.01,2013-01-02 00:37:00,
2013-01-01 16:42:00,19.6,16.4,28.70,NNW,338,0.0,0.0,87,0.00,,---,0.00,VWS V14.01,2013-01-02 00:42:00,
2013-01-01 16:47:00,19.8,16.8,28.70,NNW,338,0.0,0.0,88,0.00,,---,0.00,VWS V14.01,2013-01-02 00:47:00,
2013-01-01 16:52:00,19.8,16.8,28.70,NNW,338,0.0,0.0,88,0.00,,---,0.00,VWS V14.01,2013-01-02 00:52:00,
2013-01-01 16:57:00,19.8,16.8,28.70,NNW,338,0.0,0.0,88,0.00,,---,0.00,VWS V14.01,2013-01-02 00:57:00,
2013-01-01 17:02:00,19.6,16.6,28.70,NNW,338,0.0,0.0,88,0.00,,---,0.00,VWS V14.01,2013-01-02 01:02:00,
2013-01-01 17:07:00,19.8,17.0,28.70,NNW,338,0.0,0.0,89,0.00,,---,0.00,VWS V14.01,2013-01-02 01:07:00,
2013-01-01 17:12:00,19.8,17.0,28.70,NNW,338,0.0,0.0,89,0.00,,---,0.00,VWS V14.01,2013-01-02 01:12:00,
2013-01-01 17:17:00,19.9,17.2,28.70,NNW,338,0.0,0.0,89,0.00,,---,0.00,VWS V14.01,2013-01-02 01:17:00,
2013-01-01 17:22:00,19.9,17.2,28.70,NNW,338,0.0,0.0,89,0.00,,---,0.00,VWS V14.01,2013-01-02 01:22:00,
2013-01-01 17:27:00,19.9,17.5,28.70,NNW,338,0.0,0.0,90,0.00,,---,0.00,VWS V14.01,2013-01-02 01:27:00,
2013-01-01 17:32:00,19.9,17.2,28.70,NNW,338,0.0,0.0,89,0.00,,---,0.00,VWS V14.01,2013-01-02 01:32:00,
2013-01-01 17:37:00,19.9,17.2,28.70,NNW,338,0.0,0.0,89,0.00,,---,0.00,VWS V14.01,2013-01-02 01:37:00,
2013-01-01 17:42:00,20.1,17.7,28.70,NNW,338,0.0,0.0,90,0.00,,---,0.00,VWS V14.01,2013-01-02 01:42:00,
2013-01-01 17:47:00,20.1,17.7,28.70,NNW,338,0.0,0.0,90,0.00,,---,0.00,VWS V14.01,2013-01-02 01:47:00,
2013-01-01 17:52:00,20.3,17.8,28.70,NNW,338,0.0,0.0,90,0.00,,---,0.00,VWS V14.01,2013-01-02 01:52:00,
2013-01-01 17:57:00,20.3,17.8,28.70,NNW,338,0.0,0.0,90,0.00,,---,0.00,VWS V14.01,2013-01-02 01:57:00,
2013-01-01 18:02:00,20.3,17.8,28.70,NNW,338,0.0,0.0,90,0.00,,---,0.00,VWS V14.01,2013-01-02 02:02:00,
2013-01-01 18:07:00,20.3,17.8,28.70,NNW,338,0.0,0.0,90,0.00,,---,0.00,VWS V14.01,2013-01-02 02:07:00,
2013-01-01 18:12:00,20.3,17.8,28.70,NNW,338,0.0,0.0,90,0.00,,---,0.00,VWS V14.01,2013-01-02 02:12:00,
2013-01-01 18:17:00,20.3,17.8,28.70,NNW,338,0.0,0.0,90,0.00,,---,0.00,VWS V14.01,2013-01-02 02:17:00,
2013-01-01 18:22:00,20.1,17.7,28.70,NNW,338,0.0,0.0,90,0.00,,---,0.00,VWS V14.01,2013-01-02 02:22:00,
2013-01-01 18:27:00,20.3,17.8,28.70,NNW,338,0.0,0.0,90,0.00,,---,0.00,VWS V14.01,2013-01-02 02:27:00,
2013-01-01 18:33:00,20.3,17.8,28.70,NNW,338,0.0,0.0,90,0.00,,---,0.00,VWS V14.01,2013-01-02 02:33:00,
2013-01-01 18:38:00,20.3,17.8,28.70,NNW,338,0.0,0.0,90,0.00,,---,0.00,VWS V14.01,2013-01-02 02:38:00,
2013-01-01 18:43:00,20.3,17.8,28.70,NNW,338,0.0,0.0,90,0.00,,---,0.00,VWS V14.01,2013-01-02 02:43:00,
2013-01-01 18:48:00,20.3,17.8,28.70,NNW,338,0.0,0.0,90,0.00,,---,0.00,VWS V14.01,2013-01-02 02:48:00,
2013-01-01 18:53:00,20.3,17.8,28.70,NNW,338,0.0,0.0,90,0.00,,---,0.00,VWS V14.01,2013-01-02 02:53:00,
2013-01-01 18:58:00,20.3,17.8,28.70,NNW,338,0.0,0.0,90,0.00,,---,0.00,VWS V14.01,2013-01-02 02:58:00,
2013-01-01 19:03:00,20.3,17.8,28.70,NNW,338,0.0,0.0,90,0.00,,---,0.00,VWS V14.01,2013-01-02 03:03:00,
2013-01-01 19:08:00,20.3,17.8,28.70,NNW,338,0.0,0.0,90,0.00,,---,0.00,VWS V14.01,2013-01-02 03:08:00,
2013-01-01 19:13:00,20.3,17.8,28.70,NNW,338,0.0,0.0,90,0.00,,---,0.00,VWS V14.01,2013-01-02 03:13:00,
2013-01-01 19:18:00,20.3,17.8,28.70,NNW,338,0.0,0.0,90,0.00,,---,0.00,VWS V14.01,2013-01-02 03:18:00,
2013-01-01 19:23:00,20.3,17.8,28.70,NNW,338,0.0,0.0,90,0.00,,---,0.00,VWS V14.01,2013-01-02 03:23:00,
2013-01-01 19:28:00,20.3,17.8,28.70,NNW,338,0.0,0.0,90,0.00,,---,0.00,VWS V14.01,2013-01-02 03:28:00,
2013-01-01 19:33:00,20.3,17.8,28.70,NNW,338,0.0,0.0,90,0.00,,---,0.00,VWS V14.01,2013-01-02 03:33:00,
2013-01-01 19:38:00,20.3,17.8,28.70,NNW,338,0.0,0.0,90,0.00,,---,0.00,VWS V14.01,2013-01-02 03:38:00,
2013-01-01 19:43:00,20.3,17.8,28.70,NNW,338,0.0,0.0,90,0.00,,---,0.00,VWS V14.01,2013-01-02 03:43:00,
2013-01-01 19:48:00,20.3,17.8,28.73,NNW,338,0.0,0.0,90,0.00,,---,0.00,VWS V14.01,2013-01-02 03:48:00,
2013-01-01 19:53:00,20.3,17.8,28.73,NNW,338,0.0,0.0,90,0.00,,---,0.00,VWS V14.01,2013-01-02 03:53:00,
2013-01-01 19:58:00,20.3,17.8,28.73,NNW,338,0.0,0.0,90,0.00,,---,0.00,VWS V14.01,2013-01-02 03:58:00,
2013-01-01 20:03:00,20.3,17.8,28.73,NNW,338,0.0,0.0,90,0.00,,---,0.00,VWS V14.01,2013-01-02 04:03:00,
2013-01-01 20:08:00,20.3,17.8,28.73,NNW,338,0.0,0.0,90,0.00,,---,0.00,VWS V14.01,2013-01-02 04:08:00,
2013-01-01 20:13:00,20.3,17.8,28.73,NNW,338,0.0,0.0,90,0.00,,---,0.00,VWS V14.01,2013-01-02 04:13:00,
2013-01-01 20:18:00,20.3,17.8,28.70,NNW,338,0.0,0.0,90,0.00,,---,0.00,VWS V14.01,2013-01-02 04:18:00,
2013-01-01 20:23:00,20.3,17.8,28.70,NNW,338,0.0,0.0,90,0.00,,---,0.00,VWS V14.01,2013-01-02 04:23:00,
2013-01-01 20:28:00,20.3,17.8,28.70,NNW,338,0.0,0.0,90,0.00,,---,0.00,VWS V14.01,2013-01-02 04:28:00,
2013-01-01 20:33:00,20.3,17.8,28.70,NNW,338,0.0,0.0,90,0.00,,---,0.00,VWS V14.01,2013-01-02 04:33:00,
2013-01-01 20:38:00,20.3,17.8,28.70,NNW,338,0.0,0.0,90,0.00,,---,0.00,VWS V14.01,2013-01-02 04:38:00,
2013-01-01 20:43:00,20.3,17.8,28.73,NNW,338,0.0,0.0,90,0.00,,---,0.00,VWS V14.01,2013-01-02 04:43:00,
2013-01-01 20:48:00,20.3,17.8,28.73,NNW,338,0.0,0.0,90,0.00,,---,0.00,VWS V14.01,2013-01-02 04:48:00,
2013-01-01 20:53:00,20.3,17.8,28.73,NNW,338,0.0,0.0,90,0.00,,---,0.00,VWS V14.01,2013-01-02 04:53:00,
2013-01-01 20:58:00,20.3,17.8,28.73,NNW,338,0.0,0.0,90,0.00,,---,0.00,VWS V14.01,2013-01-02 04:58:00,
2013-01-01 21:00:00,20.3,17.8,28.73,NNW,338,0.0,0.0,90,0.00,,---,0.00,VWS V14.01,2013-01-02 05:00:00,
2013-01-01 21:02:00,20.3,17.8,28.73,NNW,338,0.0,0.0,90,0.00,,---,0.00,VWS V14.01,2013-01-02 05:02:00,
2013-01-01 21:07:00,20.3,18.1,28.73,NNW,338,0.0,0.0,91,0.00,,---,0.00,VWS V14.01,2013-01-02 05:07:00,
2013-01-01 21:12:00,20.3,18.1,28.73,NNW,338,0.0,0.0,91,0.00,,---,0.00,VWS V14.01,2013-01-02 05:12:00,
2013-01-01 21:17:00,20.3,18.1,28.73,NNW,338,0.0,0.0,91,0.00,,---,0.00,VWS V14.01,2013-01-02 05:17:00,
2013-01-01 21:22:00,20.3,18.1,28.73,NNW,338,0.0,0.0,91,0.00,,---,0.00,VWS V14.01,2013-01-02 05:22:00,
2013-01-01 21:27:00,20.5,18.3,28.73,NNW,338,0.0,0.0,91,0.00,,---,0.00,VWS V14.01,2013-01-02 05:27:00,
2013-01-01 21:32:00,20.5,18.3,28.73,NNW,338,0.0,0.0,91,0.00,,---,0.00,VWS V14.01,2013-01-02 05:32:00,
2013-01-01 21:37:00,20.5,18.3,28.73,NNW,338,0.0,0.0,91,0.00,,---,0.00,VWS V14.01,2013-01-02 05:37:00,
2013-01-01 21:42:00,20.5,18.3,28.73,NNW,338,0.0,0.0,91,0.00,,---,0.00,VWS V14.01,2013-01-02 05:42:00,
2013-01-01 21:47:00,20.5,18.3,28.73,NNW,338,0.0,0.0,91,0.00,,---,0.00,VWS V14.01,2013-01-02 05:47:00,
2013-01-01 21:52:00,20.3,18.1,28.73,NNW,338,0.0,0.0,91,0.00,,---,0.00,VWS V14.01,2013-01-02 05:52:00,
2013-01-01 21:57:00,20.5,18.3,28.73,NNW,338,0.0,0.0,91,0.00,,---,0.00,VWS V14.01,2013-01-02 05:57:00,
2013-01-01 22:02:00,20.5,18.3,28.73,NNW,338,0.0,0.0,91,0.00,,---,0.00,VWS V14.01,2013-01-02 06:02:00,
2013-01-01 22:07:00,20.5,18.3,28.73,NNW,338,0.0,0.0,91,0.00,,---,0.00,VWS V14.01,2013-01-02 06:07:00,
2013-01-01 22:12:00,20.5,18.3,28.73,NNW,338,0.0,0.0,91,0.00,,---,0.00,VWS V14.01,2013-01-02 06:12:00,
2013-01-01 22:17:00,20.3,18.1,28.73,NNW,338,0.0,0.0,91,0.00,,---,0.00,VWS V14.01,2013-01-02 06:17:00,
2013-01-01 22:22:00,20.3,18.1,28.73,NNW,338,0.0,0.0,91,0.00,,---,0.00,VWS V14.01,2013-01-02 06:22:00,
2013-01-01 22:27:00,20.3,18.1,28.73,NNW,338,0.0,0.0,91,0.00,,---,0.00,VWS V14.01,2013-01-02 06:27:00,
2013-01-01 22:32:00,20.3,18.1,28.76,NNW,338,0.0,0.0,91,0.00,,---,0.00,VWS V14.01,2013-01-02 06:32:00,
2013-01-01 22:38:00,20.3,18.1,28.76,NNW,338,0.0,0.0,91,0.00,,---,0.00,VWS V14.01,2013-01-02 06:38:00,
2013-01-01 22:43:00,20.5,18.3,28.76,NNW,338,0.0,0.0,91,0.00,,---,0.00,VWS V14.01,2013-01-02 06:43:00,
2013-01-01 22:48:00,20.3,18.1,28.73,NNW,338,0.0,0.0,91,0.00,,---,0.00,VWS V14.01,2013-01-02 06:48:00,
2013-01-01 22:53:00,20.5,18.3,28.73,NNW,338,0.0,0.0,91,0.00,,---,0.00,VWS V14.01,2013-01-02 06:53:00,
2013-01-01 22:58:00,20.5,18.3,28.73,NNW,338,0.0,0.0,91,0.00,,---,0.00,VWS V14.01,2013-01-02 06:58:00,
2013-01-01 23:03:00,20.5,18.3,28.73,NNW,338,0.0,0.0,91,0.00,,---,0.00,VWS V14.01,2013-01-02 07:03:00,
2013-01-01 23:08:00,20.5,18.3,28.73,NNW,338,0.0,0.0,91,0.00,,---,0.00,VWS V14.01,2013-01-02 07:08:00,
2013-01-01 23:13:00,20.5,18.3,28.73,NNW,338,0.0,0.0,91,0.00,,---,0.00,VWS V14.01,2013-01-02 07:13:00,
2013-01-01 23:18:00,20.5,18.3,28.73,NNW,338,0.0,0.0,91,0.00,,---,0.00,VWS V14.01,2013-01-02 07:18:00,
2013-01-01 23:23:00,20.5,18.3,28.73,NNW,338,0.0,0.0,91,0.00,,---,0.00,VWS V14.01,2013-01-02 07:23:00,
2013-01-01 23:28:00,20.5,18.3,28.73,NNW,338,0.0,0.0,91,0.00,,---,0.00,VWS V14.01,2013-01-02 07:28:00,
2013-01-01 23:33:00,20.5,18.3,28.73,NNW,338,0.0,0.0,91,0.00,,---,0.00,VWS V14.01,2013-01-02 07:33:00,
2013-01-01 23:38:00,20.7,18.5,28.73,NNW,338,0.0,0.0,91,0.00,,---,0.00,VWS V14.01,2013-01-02 07:38:00,
2013-01-01 23:43:00,20.7,18.5,28.73,NNW,338,0.0,0.0,91,0.00,,---,0.00,VWS V14.01,2013-01-02 07:43:00,
2013-01-01 23:48:00,20.5,18.3,28.73,NNW,338,0.0,0.0,91,0.00,,---,0.00,VWS V14.01,2013-01-02 07:48:00,
2013-01-01 23:53:00,20.5,18.3,28.73,NNW,338,0.0,0.0,91,0.00,,---,0.00,VWS V14.01,2013-01-02 07:53:00,
2013-01-01 23:58:00,20.5,18.3,28.73,NNW,338,0.0,0.0,91,0.00,,---,0.00,VWS V14.01,2013-01-02 07:58:00,